Location: Bacharowice
(49.9333°N, 19.5833°E)
Time: 08:27:38
(UTC+00:00)

Cosmos 2344 - Pass Details

Date: 03 October 2021
Orbit: 1235 x 3007 km, 63.3° (Epoch: 19 October)

Event Time Altitude Azimuth Distance (km) Brightness Sun altitude
Rises 17:48:03 0° 296° (WNW) 4,217 7.9 -15.6°
Reaches altitude 10° 17:50:58 10° 305° (NW) 3,322 6.9 -16.1°
Maximum altitude 17:58:09 35° 11° (N) 2,214 4.8 -17.2°
Enters shadow 18:05:27 15° 70° (ENE) 3,671 5.5 -18.4°
